Waarnemingen

Advertentie
Mijn weer
J6-A, Nederland (6211): temperatuur & dauwpunt: 23.03.2017 01:00:00 - 29.03.2017 01:00:00 (CEST)J6-A, Nederland (6211): windsnelheid & windstoten: 23.03.2017 01:00:00 - 29.03.2017 01:00:00 (CEST)J6-A, Nederland (6211): windrichting: 23.03.2017 01:00:00 - 29.03.2017 01:00:00 (CEST)J6-A, Nederland (6211): luchtdruk: 23.03.2017 01:00:00 - 29.03.2017 01:00:00 (CEST)J6-A, Nederland (6211): zicht: 23.03.2017 01:00:00 - 29.03.2017 01:00:00 (CEST)
Datum & Tijd tt [°C] td [°C] ff [km/u] ff [kn] fx [km/u] fx [kn] dd ppp [hPa] vv [km]
29.03.2017 01:00:00 8,8 7,4 39 21 40 21 ZW 1018,1 4,5
29.03.2017 00:00:00 8,2 7,4 31 17 43 23 ZZW 1018,5 4,4
28.03.2017 23:00:00 6,9 6,9 24 13 25 14 ZZW 1018,4 2,9
28.03.2017 22:00:00 6,1 6,1 26 14 29 16 ZZW 1018,4 0,5
28.03.2017 21:00:00 5,4 5,4 21 11 22 12 ZZW 1018,6 -
28.03.2017 20:00:00 5,3 5,3 21 11 29 16 ZZW 1018,6 -
28.03.2017 19:00:00 5,1 5,1 13 7 14 8 ZZO 1018,2 0,2
28.03.2017 18:00:00 4,9 4,9 13 7 18 10 Z 1019,1 0,1
28.03.2017 17:00:00 4,3 4,3 9 5 22 12 ZZO 1019,2 0,1
28.03.2017 16:00:00 4,3 4,3 9 5 25 14 ZZO 1019,7 0,2
28.03.2017 15:00:00 4,1 4,1 21 11 29 16 - 1019,9 1,0
28.03.2017 14:00:00 4,3 4,1 16 9 29 16 - 1020,2 2,7
28.03.2017 13:00:00 4,3 4,3 2 1 22 12 - 1020,6 0,5
28.03.2017 12:00:00 4,1 4,1 9 5 25 14 N 1020,7 0,5
28.03.2017 11:00:00 4,1 4,1 24 13 29 16 - 1020,5 0,7
28.03.2017 10:00:00 4,2 4,2 4 2 11 6 - 1020,6 0,1
28.03.2017 09:00:00 4,2 4,2 4 2 11 6 - 1020,4 0,1
28.03.2017 08:00:00 4,2 4,2 9 5 22 12 O 1020,2 0,2
28.03.2017 07:00:00 4,5 4,5 13 7 25 14 - 1020,2 0,6
28.03.2017 06:00:00 4,3 4,3 13 7 29 16 O 1020,3 0,8
28.03.2017 05:00:00 4,1 4,1 21 11 29 16 - 1020,6 0,5
28.03.2017 04:00:00 4,1 4,1 22 12 32 18 O 1020,9 0,4
28.03.2017 03:00:00 4,3 4,3 21 11 25 14 O 1021,4 0,8
28.03.2017 02:00:00 4,5 4,4 21 11 22 12 ONO 1021,9 0,8
28.03.2017 01:00:00 4,3 4,3 21 11 29 16 ONO 1022,0 0,7
28.03.2017 00:00:00 4,6 4,6 21 11 25 14 ONO 1022,7 0,7
27.03.2017 23:00:00 4,7 4,7 21 11 29 16 ONO 1022,9 1,2
27.03.2017 22:00:00 4,6 4,6 21 11 29 16 ONO 1023,0 0,8
27.03.2017 21:00:00 5,0 4,7 21 11 25 14 O 1022,9 2,8
27.03.2017 20:00:00 5,2 5,0 21 11 25 14 O 1022,9 2,8
27.03.2017 19:00:00 5,4 4,7 18 10 25 14 O 1023,0 4,7
27.03.2017 18:00:00 5,5 4,7 24 13 29 16 ONO 1023,0 5
27.03.2017 17:00:00 6,0 5,2 26 14 29 16 ONO 1023,3 6
27.03.2017 16:00:00 6,0 4,8 26 14 25 14 ONO 1023,9 7
27.03.2017 15:00:00 5,6 4,8 24 13 25 14 ONO 1024,5 7
27.03.2017 14:00:00 5,8 4,8 22 12 25 14 ONO 1025,1 7
27.03.2017 13:00:00 6,1 5,0 21 11 25 14 ONO 1025,5 6
27.03.2017 12:00:00 6,2 4,9 18 10 29 16 ONO 1025,9 9
27.03.2017 11:00:00 6,2 4,9 21 11 25 14 O 1026,0 10
27.03.2017 10:00:00 6,3 5,1 18 10 25 14 - 1026,0 10
27.03.2017 09:00:00 6,4 4,7 16 9 25 14 ONO 1026,1 10
27.03.2017 08:00:00 6,4 4,6 16 9 29 16 - 1025,6 10
27.03.2017 07:00:00 6,6 4,7 18 10 29 16 O 1025,4 10
27.03.2017 06:00:00 6,5 5,2 21 11 29 16 O 1025,5 10
27.03.2017 05:00:00 6,0 5,2 24 13 29 16 OZO 1025,7 10
27.03.2017 04:00:00 6,1 4,4 24 13 25 14 O 1026,2 10
27.03.2017 03:00:00 6,3 4,3 24 13 25 14 O 1026,4 10
27.03.2017 02:00:00 6,7 4,4 21 11 25 14 ONO 1026,9 10
27.03.2017 01:00:00 6,7 4,2 22 12 25 14 ONO 1027,2 10
27.03.2017 00:00:00 6,4 4,5 24 13 29 16 ONO 1027,1 10
26.03.2017 23:00:00 6,6 4,8 26 14 29 16 ONO 1027,2 10
26.03.2017 22:00:00 6,7 4,9 26 14 29 16 NO 1027,3 10
26.03.2017 21:00:00 6,5 4,9 24 13 29 16 NO 1026,9 10
26.03.2017 20:00:00 6,6 5,1 26 14 36 19 ONO 1026,8 10
26.03.2017 19:00:00 6,7 5,1 28 15 32 18 ONO 1026,9 10
26.03.2017 18:00:00 6,4 5,1 28 15 32 18 NO 1027,3 10
26.03.2017 17:00:00 5,9 5,4 26 14 32 18 NO 1027,7 10
26.03.2017 16:00:00 5,8 5,6 26 14 29 16 NO 1027,8 10
26.03.2017 15:00:00 6,3 5,6 26 14 29 16 NO 1028,2 10
26.03.2017 14:00:00 7,0 5,3 24 13 25 14 ONO 1028,2 10
26.03.2017 13:00:00 7,4 6,2 21 11 22 12 NO 1028,3 10
26.03.2017 12:00:00 7,5 5,8 22 12 25 14 NO 1028,5 10
26.03.2017 11:00:00 7,2 5,5 22 12 25 14 NNO 1028,3 10
26.03.2017 10:00:00 7,3 5,0 22 12 29 16 NO 1028,5 10
26.03.2017 09:00:00 7,5 4,8 18 10 25 14 NO 1028,3 10
26.03.2017 08:00:00 7,1 4,6 22 12 25 14 NO 1027,9 10
26.03.2017 07:00:00 7,2 4,5 21 11 22 12 NO 1027,4 10
26.03.2017 06:00:00 7,0 5,5 22 12 25 14 ONO 1027,9 10
26.03.2017 05:00:00 6,8 6,3 22 12 25 14 NNO 1027,8 10
26.03.2017 04:00:00 6,9 6,4 21 11 25 14 NO 1028,2 10
26.03.2017 03:00:00 6,9 6,3 22 12 25 14 NO 1028,5 10
26.03.2017 02:00:00 7,0 6,3 21 11 25 14 ONO 1029,0 10
26.03.2017 01:00:00 7,0 6,2 21 11 25 14 NO 1029,2 10
26.03.2017 00:00:00 7,1 6,1 22 12 25 14 NNO 1029,9 10
25.03.2017 23:00:00 7,1 5,9 22 12 25 14 NO 1030,0 10
25.03.2017 22:00:00 7,2 5,8 21 11 25 14 NO 1029,8 10
25.03.2017 21:00:00 7,3 5,5 16 9 18 10 NNO 1029,8 10
25.03.2017 20:00:00 7,7 5,2 16 9 18 10 NNO 1030,1 10
25.03.2017 19:00:00 8,3 5,2 15 8 18 10 NNO 1030,0 10
25.03.2017 18:00:00 8,0 4,5 11 6 18 10 - 1030,4 10
25.03.2017 17:00:00 8,0 3,7 13 7 25 14 NNO 1031,2 10
25.03.2017 16:00:00 7,9 2,5 13 7 14 8 N 1032,0 10
25.03.2017 15:00:00 7,6 2,3 13 7 14 8 NNO 1033,0 10
25.03.2017 14:00:00 7,2 1,4 9 5 11 6 N 1033,5 10
25.03.2017 13:00:00 6,9 2,7 9 5 7 4 N 1034,0 10
25.03.2017 12:00:00 7,0 3,5 9 5 22 12 NNO 1034,3 10
25.03.2017 11:00:00 7,1 3,6 15 8 25 14 NNO 1034,5 10
25.03.2017 10:00:00 7,1 4,5 13 7 22 12 NNO 1034,4 10
25.03.2017 09:00:00 6,7 4,4 11 6 18 10 NNO 1034,2 10
25.03.2017 08:00:00 6,3 4,1 13 7 11 6 N 1034,1 10
25.03.2017 07:00:00 6,2 3,6 8 4 7 4 N 1034,1 10
25.03.2017 06:00:00 6,2 3,6 9 5 14 8 N 1034,3 10
25.03.2017 05:00:00 6,2 3,8 9 5 18 10 O 1034,6 10
25.03.2017 04:00:00 6,4 4,2 9 5 22 12 ZO 1035,0 10
25.03.2017 03:00:00 6,6 4,1 18 10 25 14 O 1035,5 10
25.03.2017 02:00:00 6,7 3,9 21 11 25 14 ONO 1035,5 10
25.03.2017 01:00:00 6,8 4,1 21 11 29 16 - 1035,6 10
25.03.2017 00:00:00 6,9 4,1 18 10 25 14 O 1035,4 10
24.03.2017 23:00:00 6,8 4,6 22 12 25 14 NO 1035,3 10
24.03.2017 22:00:00 6,7 5,0 22 12 29 16 NO 1035,1 10
24.03.2017 21:00:00 6,8 4,9 29 16 32 18 NNO 1034,6 10
24.03.2017 20:00:00 6,9 4,8 31 17 32 18 NNO 1033,9 10
24.03.2017 19:00:00 7,2 4,9 24 13 32 18 - 1033,4 10
24.03.2017 18:00:00 7,2 5,3 31 17 32 18 NNO 1033,7 10
24.03.2017 17:00:00 7,1 5,2 21 11 29 16 NO 1033,9 10
24.03.2017 16:00:00 7,1 5,0 21 11 25 14 NO 1034,2 10
24.03.2017 15:00:00 7,5 3,9 22 12 29 16 ONO 1034,2 10
24.03.2017 14:00:00 7,3 4,4 21 11 22 12 NO 1034,5 10
24.03.2017 13:00:00 7,5 4,8 24 13 25 14 ONO 1034,0 10
24.03.2017 12:00:00 7,2 4,7 26 14 29 16 ONO 1033,3 9
24.03.2017 11:00:00 6,9 4,5 29 16 29 16 NO 1032,8 10
24.03.2017 10:00:00 6,5 4,3 29 16 32 18 ONO 1031,8 10
24.03.2017 09:00:00 6,3 4,1 31 17 36 19 ONO 1030,9 10
24.03.2017 08:00:00 6,2 3,7 31 17 32 18 ONO 1030,8 10
24.03.2017 07:00:00 6,2 3,5 34 18 36 19 NO 1030,0 10
24.03.2017 06:00:00 6,2 3,3 34 18 36 19 NO 1029,6 10
24.03.2017 05:00:00 6,2 3,0 37 20 40 21 ONO 1029,2 10
24.03.2017 04:00:00 6,4 2,9 37 20 40 21 NO 1029,0 10
24.03.2017 03:00:00 6,2 3,4 39 21 43 23 ONO 1028,3 10
24.03.2017 02:00:00 6,3 3,2 42 23 43 23 ONO 1027,8 10
24.03.2017 01:00:00 6,3 3,2 42 23 47 25 NNO 1027,5 10
24.03.2017 00:00:00 6,4 3,6 44 24 50 27 ONO 1026,8 10
23.03.2017 23:00:00 6,5 3,8 44 24 50 27 ONO 1026,5 10
23.03.2017 22:00:00 6,7 3,8 46 25 54 29 NO 1026,0 10
23.03.2017 21:00:00 6,7 3,9 50 27 50 27 NNO 1025,3 10
23.03.2017 20:00:00 6,8 4,0 44 24 47 25 NNO 1024,3 10
23.03.2017 19:00:00 7,0 3,7 42 23 43 23 ONO 1023,7 10
23.03.2017 18:00:00 7,0 3,8 41 22 47 25 NO 1023,0 10
23.03.2017 17:00:00 7,2 3,8 39 21 43 23 ONO 1022,3 10
23.03.2017 16:00:00 7,2 3,9 42 23 47 25 ONO 1021,5 10
23.03.2017 15:00:00 7,2 4,1 42 23 47 25 NO 1021,5 10
23.03.2017 14:00:00 7,2 3,9 44 24 43 23 NO 1021,2 10
23.03.2017 13:00:00 7,5 3,9 46 25 47 25 ONO 1021,0 10
23.03.2017 12:00:00 7,5 4,3 48 26 47 25 ONO 1020,5 10
23.03.2017 11:00:00 7,3 4,5 44 24 43 23 NO 1019,4 10
23.03.2017 10:00:00 7,3 4,6 42 23 43 23 ONO 1019,1 10
23.03.2017 09:00:00 7,2 4,6 42 23 43 23 ONO 1018,5 10
23.03.2017 08:00:00 7,2 4,6 37 20 36 19 ONO 1017,7 10
23.03.2017 07:00:00 7,4 4,7 35 19 36 19 ONO 1017,2 10
23.03.2017 06:00:00 7,7 4,8 34 18 36 19 ONO 1016,8 10
23.03.2017 05:00:00 7,8 4,7 39 21 40 21 O 1016,1 10
23.03.2017 04:00:00 7,9 4,6 37 20 36 19 O 1015,8 10
23.03.2017 03:00:00 8,1 4,6 37 20 40 21 OZO 1015,5 10
23.03.2017 02:00:00 7,8 4,7 41 22 43 23 O 1015,2 10
23.03.2017 01:00:00 - - - - - - - - -

tt = temperatuur
td = dauwpunt
ff = windsnelheid
fx = windstoten
dd = windrichting
ppp = luchtdruk
vv = zicht

Weerstations in de omgeving